Time,TemperatureF,DewpointF,PressureIn,WindDirection,WindDirectionDegrees,WindSpeedMPH,WindSpeedGustMPH,Humidity,HourlyPrecipIn,Conditions,Clouds,dailyrainin,SoftwareType,DateUTC
2017-12-15 00:05:00,18.7,17.0,29.22,East,90,3.0,-999.0,93,0.00,,,0.00,,2017-12-15 05:05:00,
2017-12-15 00:11:00,18.7,17.0,29.20,East,90,2.0,-999.0,93,0.00,,,0.00,,2017-12-15 05:11:00,
2017-12-15 00:16:00,18.7,17.0,29.20,East,90,1.0,-999.0,93,0.00,,,0.00,,2017-12-15 05:16:00,
2017-12-15 00:22:00,18.7,17.0,29.21,East,90,0.0,-999.0,93,0.00,,,0.00,,2017-12-15 05:22:00,
2017-12-15 00:28:00,18.7,17.0,29.20,East,90,1.0,-999.0,93,0.00,,,0.00,,2017-12-15 05:28:00,
2017-12-15 00:35:00,18.7,17.0,29.20,East,90,2.0,-999.0,93,0.00,,,0.00,,2017-12-15 05:35:00,
2017-12-15 00:43:00,18.7,17.0,29.21,East,90,0.0,-999.0,93,0.00,,,0.00,,2017-12-15 05:43:00,
2017-12-15 00:48:00,18.7,17.0,29.21,East,90,0.0,-999.0,93,0.00,,,0.00,,2017-12-15 05:48:00,
2017-12-15 00:53:00,18.7,17.0,29.21,East,90,0.0,-999.0,93,0.00,,,0.00,,2017-12-15 05:53:00,
2017-12-15 00:59:00,18.8,17.0,29.21,East,90,1.0,-999.0,93,0.00,,,0.00,,2017-12-15 05:59:00,
2017-12-15 01:05:00,18.8,17.0,29.21,East,90,0.0,-999.0,93,0.00,,,0.00,,2017-12-15 06:05:00,
2017-12-15 01:11:00,19.3,17.0,29.20,East,90,0.0,-999.0,93,0.00,,,0.00,,2017-12-15 06:11:00,
2017-12-15 01:16:00,19.8,18.0,29.20,East,90,0.0,-999.0,93,0.00,,,0.00,,2017-12-15 06:16:00,
2017-12-15 01:22:00,19.7,18.0,29.20,East,90,0.0,-999.0,93,0.00,,,0.00,,2017-12-15 06:22:00,
2017-12-15 01:27:00,19.0,17.0,29.20,East,90,0.0,-999.0,91,0.00,,,0.00,,2017-12-15 06:27:00,
2017-12-15 01:32:00,19.0,17.0,29.21,East,90,0.0,-999.0,91,0.00,,,0.00,,2017-12-15 06:32:00,
2017-12-15 01:43:00,19.2,17.0,29.21,East,90,0.0,-999.0,91,0.00,,,0.00,,2017-12-15 06:43:00,
2017-12-15 01:48:00,19.2,17.0,29.20,East,90,0.0,-999.0,91,0.00,,,0.00,,2017-12-15 06:48:00,
2017-12-15 01:56:00,19.2,17.0,29.20,East,90,0.0,-999.0,91,0.00,,,0.00,,2017-12-15 06:56:00,
2017-12-15 02:02:00,18.8,16.0,29.20,East,90,0.0,-999.0,91,0.00,,,0.00,,2017-12-15 07:02:00,
2017-12-15 02:16:00,19.0,17.0,29.19,East,90,0.0,-999.0,91,0.00,,,0.00,,2017-12-15 07:16:00,
2017-12-15 02:21:00,19.0,17.0,29.19,East,90,0.0,-999.0,91,0.00,,,0.00,,2017-12-15 07:21:00,
2017-12-15 02:27:00,19.7,18.0,29.19,East,90,1.0,-999.0,93,0.00,,,0.00,,2017-12-15 07:27:00,
2017-12-15 02:34:00,19.7,18.0,29.19,East,90,0.0,-999.0,93,0.00,,,0.00,,2017-12-15 07:34:00,
2017-12-15 02:48:00,20.0,18.0,29.18,East,90,0.0,-999.0,93,0.00,,,0.00,,2017-12-15 07:48:00,
2017-12-15 02:56:00,20.0,18.0,29.18,East,90,1.0,-999.0,93,0.00,,,0.00,,2017-12-15 07:56:00,
2017-12-15 03:02:00,20.4,18.0,29.18,East,90,0.0,-999.0,93,0.00,,,0.00,,2017-12-15 08:02:00,
2017-12-15 03:10:00,20.4,18.0,29.18,East,90,1.0,-999.0,93,0.00,,,0.00,,2017-12-15 08:10:00,
2017-12-15 03:17:00,20.4,18.0,29.18,East,90,0.0,-999.0,93,0.00,,,0.00,,2017-12-15 08:17:00,
2017-12-15 03:22:00,20.4,18.0,29.18,East,90,0.0,-999.0,93,0.00,,,0.00,,2017-12-15 08:22:00,
2017-12-15 03:32:00,20.4,18.0,29.18,East,90,0.0,-999.0,91,0.00,,,0.00,,2017-12-15 08:32:00,
2017-12-15 03:38:00,20.2,18.0,29.18,East,90,0.0,-999.0,91,0.00,,,0.00,,2017-12-15 08:38:00,
2017-12-15 03:51:00,20.2,18.0,29.18,East,90,0.0,-999.0,91,0.00,,,0.00,,2017-12-15 08:51:00,
2017-12-15 03:56:00,20.2,18.0,29.18,East,90,0.0,-999.0,91,0.00,,,0.00,,2017-12-15 08:56:00,
2017-12-15 04:01:00,20.2,18.0,29.17,East,90,0.0,-999.0,91,0.00,,,0.00,,2017-12-15 09:01:00,
2017-12-15 04:06:00,20.2,18.0,29.17,East,90,0.0,-999.0,91,0.00,,,0.00,,2017-12-15 09:06:00,
2017-12-15 04:11:00,20.0,18.0,29.18,East,90,0.0,-999.0,91,0.00,,,0.00,,2017-12-15 09:11:00,
2017-12-15 04:16:00,20.0,18.0,29.17,East,90,0.0,-999.0,91,0.00,,,0.00,,2017-12-15 09:16:00,
2017-12-15 04:22:00,20.0,18.0,29.17,East,90,0.0,-999.0,91,0.00,,,0.00,,2017-12-15 09:22:00,
2017-12-15 04:32:00,20.0,18.0,29.17,East,90,0.0,-999.0,91,0.00,,,0.00,,2017-12-15 09:32:00,
2017-12-15 04:38:00,20.0,18.0,29.17,East,90,0.0,-999.0,91,0.00,,,0.00,,2017-12-15 09:38:00,
2017-12-15 04:56:00,20.2,18.0,29.17,East,90,0.0,-999.0,93,0.00,,,0.00,,2017-12-15 09:56:00,
2017-12-15 05:03:00,19.8,18.0,29.17,East,90,0.0,-999.0,93,0.00,,,0.00,,2017-12-15 10:03:00,
2017-12-15 05:08:00,19.7,18.0,29.18,East,90,0.0,-999.0,93,0.00,,,0.00,,2017-12-15 10:08:00,
2017-12-15 05:13:00,19.6,17.0,29.17,East,90,0.0,-999.0,93,0.00,,,0.00,,2017-12-15 10:13:00,
2017-12-15 05:18:00,19.6,17.0,29.17,East,90,0.0,-999.0,93,0.00,,,0.00,,2017-12-15 10:18:00,
2017-12-15 05:23:00,19.3,17.0,29.16,East,90,0.0,-999.0,93,0.00,,,0.00,,2017-12-15 10:23:00,
2017-12-15 05:29:00,19.6,18.0,29.16,East,90,0.0,-999.0,93,0.00,,,0.00,,2017-12-15 10:29:00,
2017-12-15 05:34:00,19.7,18.0,29.17,East,90,0.0,-999.0,93,0.00,,,0.00,,2017-12-15 10:34:00,
2017-12-15 05:39:00,19.7,18.0,29.17,East,90,0.0,-999.0,93,0.00,,,0.00,,2017-12-15 10:39:00,
2017-12-15 05:46:00,19.7,18.0,29.17,East,90,1.0,-999.0,93,0.00,,,0.00,,2017-12-15 10:46:00,
2017-12-15 05:53:00,19.7,18.0,29.17,East,90,0.0,-999.0,93,0.00,,,0.00,,2017-12-15 10:53:00,
2017-12-15 05:58:00,19.7,18.0,29.17,East,90,0.0,-999.0,93,0.00,,,0.00,,2017-12-15 10:58:00,
2017-12-15 06:03:00,19.7,18.0,29.18,East,90,0.0,-999.0,93,0.00,,,0.00,,2017-12-15 11:03:00,
2017-12-15 06:08:00,19.7,18.0,29.17,East,90,1.0,-999.0,93,0.00,,,0.00,,2017-12-15 11:08:00,
2017-12-15 06:13:00,19.7,18.0,29.17,East,90,1.0,-999.0,93,0.00,,,0.00,,2017-12-15 11:13:00,
2017-12-15 06:19:00,19.6,18.0,29.16,East,90,1.0,-999.0,93,0.00,,,0.00,,2017-12-15 11:19:00,
2017-12-15 06:24:00,19.6,18.0,29.16,East,90,0.0,-999.0,93,0.00,,,0.00,,2017-12-15 11:24:00,
2017-12-15 06:30:00,19.3,17.0,29.16,East,90,0.0,-999.0,93,0.00,,,0.00,,2017-12-15 11:30:00,
2017-12-15 06:51:00,19.3,17.0,29.16,East,90,0.0,-999.0,93,0.00,,,0.00,,2017-12-15 11:51:00,
2017-12-15 06:57:00,19.3,17.0,29.15,East,90,1.0,-999.0,93,0.00,,,0.00,,2017-12-15 11:57:00,